Location: Tucson
(32.2217°N, 110.9265°W)
Time: 08:24:29
(UTC-07:00)

Tiros 1 - Pass Details

Date: 03 November 2021
Orbit: 629 x 664 km, 48.4° (Epoch: 27 November)

Event Time Altitude Azimuth Distance (km) Brightness Sun altitude
Rises 11:05:28 0° 318° (NW) 2,984 10.1 40.2°
Reaches altitude 10° 11:08:29 10° 337° (NNW) 2,065 9.4 40.4°
Maximum altitude 11:11:47 18° 21° (NNE) 1,576 9.0 40.7°
Drops below altitude 10° 11:15:05 10° 65° (ENE) 2,048 9.8 40.9°
Sets 11:18:03 0° 84° (E) 2,949 10.6 41.0°
